Location: Worth Mountain WMA
(34.9569°N, 81.4819°W)
Time: 15:25:30
(UTC-04:00)

Cosmos 44 - Pass Details

Date: 18 August 2017
Orbit: 595 x 768 km, 65.1° (Epoch: 23 September)

Event Time Altitude Azimuth Distance (km) Brightness Sun altitude
Rises 21:58:46 0° 324° (NW) 2,874 7.7 -21.0°
Reaches altitude 10° 22:01:03 10° 318° (NW) 1,984 6.7 -21.4°
Maximum altitude 22:05:19 46° 245° (WSW) 861 3.9 -22.1°
Enters shadow 22:06:55 32° 196° (SSW) 1,098 4.1 -22.3°
